Terminal Aerodrome Forecast
Issued by NWS Billings, MT

Home | Current Version | Previous Version | Graphics & Text | Print | Product List | Glossary On
Versions: 1 2 3 4 5 6 7 8 9 10 11 12 13 14 15 16 17 18 19 20 21 22 23 24 25 26 27 28 29 30 31 32 33 34 35 36 37
000
FTUS45 KBYZ 031338 AAA
TAFMLS
TAF AMD
KMLS 031338Z 0314/0412 32012KT P6SM BKN007 BKN010
     FM031500 29010KT P6SM SCT007 BKN050
     FM031900 27011G20KT P6SM SCT250
     FM040100 28008KT P6SM SCT150=

USA.gov is the U.S. government's official web portal to all federal, state and local government web resources and services.